Regional Weather Roundup
Issued by NWS

Home | Current Version | Previous Version | Text Only | Print | Product List | Glossary Off
Versions: 1 2 3 4 5 6 7 8 9 10 11 12 13 14 15 16 17 18 19 20 21 22 23 24 25 26 27 28 29 30 31 32 33 34 35 36 37 38 39 40 41 42 43 44 45 46 47 48 49 50

000
ASUS43 KIND 201509
RWRIN

WEATHER ROUNDUP FOR INDIANA
NATIONAL WEATHER SERVICE INDIANAPOLIS IN
1000 AM EST SAT DEC 20 2014

NOTE: "FAIR" INDICATES FEW OR NO CLOUDS BELOW 12,000 FEET WITH NO
SIGNIFICANT WEATHER AND/OR OBSTRUCTIONS TO VISIBILITY.

* - STATION DOES NOT REPORT WEATHER SUCH AS PRECIPITATION OR FOG.

+ - STATION NOT QUALITY CONTROLLED BY THE NATIONAL WEATHER SERVICE.
    USE DATA WITH CAUTION...ESPECIALLY DEWPOINT AND RELATIVE
    HUMIDITY OBSERVATIONS.

INZ001>003-010>013-019-020-201600-
NORTHWEST INDIANA

CITY           SKY/WX    TMP DP  RH WIND       PRES   REMARKS
GARY /AIRPORT/ CLOUDY    32  23  69 CALM      30.30S
KNOX *+        CLOUDY    31  24  76 CALM      30.29R
LA PORTE +     CLOUDY    32  26  78 CALM      30.30R
MICHIGAN CITY+ CLOUDY    32  21  64 S3        30.30R
MONTICELLO +   CLOUDY    30  28  90 CALM      30.29S
RENSSELAER +   CLOUDY    32  30  93 CALM      30.31R FOG
VALPARAISO     CLOUDY    30  25  81 CALM      30.29S

$$

LMZ046-743>745-201600-
SOUTHERN LAKE MICHIGAN

STATION/POSITION TIME  TEMP WIND        PRES
                       AIR  DIR/SP/G
                 (UTC) (F)  (DEG/KT/KT) (MB)

$$

INZ004-005-014>016-021>024-201600-
NORTH CENTRAL INDIANA

CITY           SKY/WX    TMP DP  RH WIND       PRES   REMARKS
ELKHART        CLOUDY    27  23  86 CALM      30.30  FOG
GOSHEN         CLOUDY    27  24  89 SE3       30.28S FOG
LOGANSPORT +   CLOUDY    30  28  93 CALM      30.30S FOG
PERU/GRISSOM   CLOUDY    29  29 100 CALM      30.29S FOG
ROCHESTER +    PTSUNNY   32  30  93 CALM      30.29S
SOUTH BEND     NOT AVBL
WARSAW +       CLOUDY    30  28  93 CALM      30.28F FOG

$$

INZ006>009-017-018-025>027-201600-
NORTHEAST INDIANA

CITY           SKY/WX    TMP DP  RH WIND       PRES   REMARKS
ANGOLA *+      MOSUNNY   27  25  93 CALM      30.27S
AUBURN +       PTSUNNY   28  25  86 CALM      30.29S FOG
FORT WAYNE     CLOUDY    28  25  88 CALM      30.30S FOG
HUNTINGTON +   CLOUDY    29  28  96 CALM      30.29S FOG

$$

INZ028-029-035-036-043>045-051>053-201600-
WEST CENTRAL INDIANA

CITY           SKY/WX    TMP DP  RH WIND       PRES   REMARKS
GREENCASTLE +  CLOUDY    30  23  74 CALM      30.29S HAZE
LAFAYETTE      CLOUDY    29  27  92 CALM      30.30S FOG
TERRE HAUTE    CLOUDY    30  26  85 E6        30.30S WCI  24

$$

INZ030>032-037>040-046>048-054>057-064-065-201600-
CENTRAL INDIANA

CITY           SKY/WX    TMP DP  RH WIND       PRES   REMARKS
ANDERSON       CLOUDY    28  25  86 CALM      30.31R FOG
CP ATTERBURY + CLOUDY    30  28  93 MISG      30.30S
COLUMBUS       LGT SNOW  28  28 100 CALM      30.31R FOG
FRANKFORT +    MOSUNNY   30  30 100 CALM      30.30S FOG
INDIANAPOLIS   CLOUDY    29  25  85 CALM      30.28S FOG
-EAGLE CREEK   CLOUDY    30  25  81 CALM      30.28S
KOKOMO *+      CLOUDY    30  27  86 CALM      30.29S
MARION +       CLOUDY    29  28  96 CALM      30.30R FOG
MT COMFORT *+  CLOUDY    30  23  74 CALM      30.29S
SHELBYVILLE    CLOUDY    31  25  78 CALM      30.29S HAZE
ZIONSVILLE +   CLOUDY    30  27  88 CALM      30.29S FOG

$$

INZ033-034-041-042-049-050-058-059-201600-
EAST CENTRAL INDIANA

CITY           SKY/WX    TMP DP  RH WIND       PRES   REMARKS
MUNCIE         CLOUDY    30  25  81 CALM      30.29S HAZE

$$

INZ060-061-067>069-081>083-085>088-201600-
SOUTHWEST INDIANA

CITY           SKY/WX    TMP DP  RH WIND       PRES   REMARKS
EVANSVILLE     CLOUDY    33  25  72 E6        30.32R WCI  28
HUNTINGBURG *+ CLOUDY    30  25  80 NE5       30.31R WCI  25
WASHINGTON +   CLOUDY    31  26  81 E5        30.30R WCI  26

$$

INZ062-063-066-070>080-084-089>092-201600-
SOUTH CENTRAL AND SOUTHEAST INDIANA

CITY           SKY/WX    TMP DP  RH WIND       PRES   REMARKS
BLOOMINGTON    CLOUDY    29  27  92 CALM      30.29R FOG
SEYMOUR +      LGT SNOW  32  27  80 NE3       30.31

$$



USA.gov is the U.S. government's official web portal to all federal, state and local government web resources and services.